Regional Weather Roundup
Issued by NWS

Home | Current Version | Previous Version | Text Only | Print | Product List | Glossary On
Versions: 1 2 3 4 5 6 7 8 9 10 11 12 13 14 15 16 17 18 19 20 21 22 23 24 25 26 27 28 29 30 31 32 33 34 35 36 37 38 39 40 41 42 43 44 45 46 47 48 49 50
000
ASUS43 KDTX 231310
RWRMI
MICHIGAN HOURLY REGIONAL WEATHER ROUNDUP
NATIONAL WEATHER SERVICE DETROIT/PONTIAC MI
900 AM EDT THU MAR 23 2017

NOTE: "FAIR" INDICATES FEW OR NO CLOUDS BELOW 12,000 FEET WITH NO
SIGNIFICANT WEATHER AND/OR OBSTRUCTION TO VISIBILITY.

MIZ047>049-052>055-059>063-066>070-074>076-081>083-231400-
SOUTHEAST LOWER MICHIGAN

CITY           SKY/WX    TMP DP  RH WIND       PRES   REMARKS
ADRIAN         MOSUNNY   24  17  74 SE5       30.55S WCI  18
ALMA           MOSUNNY   28  20  72 S9        30.53R WCI  19
ANN ARBOR      CLOUDY    25  20  81 E3        30.55R
BAD AXE        SUNNY     25  19  78 S7        30.56R WCI  17
CARO           CLOUDY    25  19  78 S3        30.55S
DETROIT CITY   SUNNY     27  16  63 SE6       30.58R WCI  20
DETROIT        PTSUNNY   28  16  60 E3        30.58R
FLINT          CLOUDY    25  19  78 S6        30.55R WCI  18
GROSSE ILE     SUNNY     28  16  59 E3        30.56S
HILLSDALE      CLOUDY    25  16  68 SE12G18   30.49S WCI  14
HOWELL         CLOUDY    25  19  79 SE6       30.53S WCI  18

CITY           SKY/WX    TMP DP  RH WIND       PRES   REMARKS
JACKSON        SUNNY     25  16  68 SE9       30.51F WCI  15
LAMBERTVILLE   MOSUNNY   29  18  64 SE6       30.56S WCI  23
LANSING        CLOUDY    26  16  65 SE10      30.52F WCI  16
LAPEER         FAIR      24  19  80 CALM      30.56R
MASON          CLOUDY    25  19  77 SE7       30.52S WCI  18
MONROE         SUNNY     27  21  79 SW3       30.56S
MT. CLEMENS    PTSUNNY   28  18  64 SE8       30.56R WCI  20
PONTIAC        PTSUNNY   26  14  60 S10       30.54R WCI  16
PORT HOPE        N/A     27  19  72 S3        30.55R
PORT HURON     SUNNY     21  12  68 S3        30.59R
TRI CITIES     SUNNY     26  19  74 S7        30.54R WCI  18
MIDLAND        FAIR      27  18  68 S7        30.53S WCI  20
TROY           SUNNY     27  13  55 SE5       30.58S WCI  22
SAGINAW HB     CLOUDY    27  19  74 S5        30.55R WCI  21
$$
MIZ043>046-050>051-056>058-064>065-071>073-077>080-231400-
SOUTHWEST LOWER MICHIGAN

CITY           SKY/WX    TMP DP  RH WIND       PRES   REMARKS
BATTLE CREEK   CLOUDY    26  16  65 SE12      30.48F WCI  16
BENTON HARBOR  CLOUDY    29  17  61 SE8       30.46S WCI  21
BIG RAPIDS     MOSUNNY   25  17  74 S3        30.46F
COLDWATER      MOSUNNY   27  13  57 SE13      30.48F WCI  16
FREMONT        FAIR      26  15  62 S5        30.47S WCI  20
HOLLAND        CLOUDY    27  18  69 E12       30.48R WCI  17
GRAND RAPIDS   PTSUNNY   26  15  63 SE12      30.49S WCI  16
IONIA          FAIR      26  18  72 SE9       30.50S WCI  17
KALAMAZOO      MOSUNNY   27  14  58 SE8       30.48F WCI  19
LUDINGTON      CLOUDY    28  18  65 SE8       30.45F WCI  20
MARSHALL       CLOUDY    26  17  69 SE7       30.49F WCI  18
MOUNT PLEASANT MOSUNNY   28  19  69 S7        30.51R WCI  20
MUSKEGON       PTSUNNY   28  18  66 SE6       30.49R WCI  22
SOUTH HAVEN    CLOUDY    28  18  66 SE5       30.46F WCI  23
$$
MIZ016>042-231400-
NORTHERN LOWER MICHIGAN

CITY           SKY/WX    TMP DP  RH WIND       PRES   REMARKS
ALPENA         MOSUNNY   20  17  88 CALM      30.52R
BEAVER ISLAND  PTSUNNY   28  19  70 SE6       30.44F WCI  21
BELLAIRE       CLOUDY    24  19  80 CALM      30.48F
CADILLAC       CLOUDY    28  14  55 S6        30.42F WCI  21
CHARLEVOIX     CLOUDY    26  13  60 SE6       30.49F WCI  19
FRANKFORT      CLOUDY    29  14  54 SE6       30.45F WCI  23
GAYLORD        MOSUNNY   25  11  55 S6        30.44F WCI  18
GRAYLING       CLOUDY    23  16  74 CALM      30.46F
HARBOR SPRINGS CLOUDY    22  12  63 E5        30.48R WCI  16
HOUGHTON LAKE  CLOUDY    25  15  66 S7        30.48S WCI  17
MANISTEE       CLOUDY    27  17  66 SE5       30.46F WCI  22
OSCODA         MOSUNNY   25  18  77 SW3       30.53S
PELLSTON       MOSUNNY   20  12  71 CALM      30.48S
ROGERS CITY    CLOUDY    24  16  69 S3        30.51S
TRAVERSE CITY  CLOUDY    26  13  57 S5        30.46F WCI  20
$$
MIZ007>008-015-231400-
EASTERN UPPER MICHIGAN

CITY           SKY/WX    TMP DP  RH WIND       PRES   REMARKS
KINROSS        CLOUDY    19  15  84 SE8       30.46S WCI   9
MACKINAC ISLAN CLOUDY    24  13  64 S6        30.46F WCI  17
NEWBERRY       CLOUDY    22  18  86 S6        30.41F WCI  14
S. S. MARIE    CLOUDY    17  11  77 E6        30.47R WCI   9
MUNISING         N/A     26  19  74 S7        30.38F WCI  18
$$
MIZ004>006-011>014-085-231400-
CENTRAL UPPER MICHIGAN

CITY           SKY/WX    TMP DP  RH WIND       PRES   REMARKS
MANISTIQUE     CLOUDY    30  23  74 S10G17    30.41F WCI  21
ESCANABA       CLOUDY    26  22  84 CALM      30.41F
MENOMINEE        N/A    N/A N/A N/A MISG        N/A
SAWYER-GWINN   CLOUDY    23  18  80 S14       30.34S WCI  11
$$
MIZ001>003-009>011-084-231400-
WESTERN UPPER MICHIGAN

CITY           SKY/WX    TMP DP  RH WIND       PRES   REMARKS
IRON MOUNTAIN  CLOUDY    25  16  68 S7        30.34S WCI  17
HOUGHTON       CLOUDY    28  16  60 S10       30.26F WCI  19
COPPER HARBOR    N/A     31  20  63 SW13      30.29F WCI  21
IRONWOOD       LGT SNOW  28  25  86 SE16      30.20F FOG     WCI  17
$$

ABBREVIATIONS USED IN REMARKS
   TC - TEMPERATURE IN CELSIUS
  WCI - WIND CHILL INDEX
   HX - HEAT INDEX
  VSB - VISIBILITY





USA.gov is the U.S. government's official web portal to all federal, state and local government web resources and services.